SCP
0 0 -0 -0 -0 -0 -0 -0 -0 0 -0 -0 -0 -0 0 -0 -0 -0 -0 -0 -0 -0 -0 -0 -0 -0 -0 -0 -0 0 -0 0 0 0 0 0 -0 0 0 0 0 -0 0
0 0 -0 -0 -0 -0 -0 -0 -0 -0 -0 -0 -0 0 -0 -0 -0 -0 -0 -0 -0 -0 -0 -0 -0 0 0 0 0 -0 0 0 0 0 0 0 -0 0 0 0 0 0 0
-0 0 0 -0 -0 -0 -0 -0 -0 -0 -0 -0 0 0 -0 -0 -0 -0 -0 -0 -0 -0 -0 -0 0 0 0 0 0 0 0 0 -0 -0 0 0 -0 0 0 0 0 0 0
0 -0 0 -0 -0 -0 -0 -0 -0 -0 -0 -0 0 0 -0 -0 -0 -0 0 -0 -0 0 0 0 0 0 -0 -0 -0 0 0 -0 -0 0 0 0 0 0 0 0 0 0 0
0 -0 -0 -0 -0 -0 -0 -0 -0 -0 -0 0 0 0 -0 -0 -0 0 0 0 0 0 0 0 0 0 0 0 0 0 -0 0 0 0 0 0 0 0 0 0 0 0 0
0 -0 0 -0 -0 -0 -0 -0 -0 -0 0 -0 -0 -0 0 -0 0 0 0 0 -0 -0 0 0 -0 -0 -0 -0 0 0 0 0 0 0 0 0 0 0 0 0 0 0 0
-0 0 0 -0 -0 -0 -0 -0 -0 -0 -0 -0 -0 -0 -0 -0 -0 -0 -0 -0 0 -0 0 -0 0 -0 -0 -0 -0 -0 0 0 0 0 0 0 0 0 0 0 0 0 0
-0 0 0 0 0 -0 -0 -0 -0 -0 -0 -0 -0 -0 -0 -0 -0 -0 -0 -0 -0 -0 -0 -0 -0 -0 -0 -0 -0 -0 -0 0 0 0 0 0 0 0 0 0 0 0 0
0 -0 0 -0 -0 -0 -0 -0 -0 -0 -0 -0 -0 -0 -0 -0 -0 -0 -0 -0 -0 -0 -0 -0 -0 -0 -0 -0 -0 -0 0 0 0 0 0 0 0 0 0 0 0 0 0
0 0 0 -0 -0 -0 -0 0 -0 -0 -0 -0 -0 -0 -0 -0 -0 -0 -0 -0 -0 -0 -0 -0 -0 -0 -0 -0 -0 -0 -0 0 0 0 0 0 0 0 0 0 0 0 0
0 -0 -0 -0 -0 -0 -0 -0 -0 -0 -0 -0 -0 -0 -0 -0 -0 -0 -0 -0 -0 -0 -0 -0 -0 -0 -0 -0 -0 -0 0 0 0 0 0 0 0 0 0 0 0 0 0
-0 -0 -0 -0 -0 -0 -0 -0 -0 -0 -0 -0 -0 -0 -0 -0 -0 -0 -0 -0 -0 -0 -0 -0 -0 -0 0 0 0 0 0 0 0 0 0 0 0 0 0 0 0 0 0
-0 -0 -0 -0 -0 -0 -0 -0 -0 -0 -0 -0 -0 -0 -0 -0 -0 -0 -0 -0 -0 -0 0 0 0 0 0 0 0 0 0 0 0 0 0 0 0 0 0 0 0 0 0
-0 -0 -0 0 0 -0 -0 -0 -0 -0 -0 -0 -0 0 0 0 0 0 0 0 0 0 0 0 0 0 0 0 0 0 0 0 0 0 0 0 0 0 0 0 0 0 0
-0 -0 -0 -0 -0 -0 -0 -0 -0 -0 0 0 0 0 0 0 0 0 0 0 0 0 0 0 0 0 0 0 0 0 0 0 0 0 0 0 0 0 0 0 0 0 0
-0 -0 -0 -0 -0 -0 0 0 0 0 0 0 0 0 0 0 0 0 0 0 0 0 0 0 0 0 0 0 0 0 0 0 0 0 0 0 0 0 0 0 0 0 0
-0 -0 -0 -0 -0 0 0 0 0 0 0 0 0 0 0 0 0 0 0 0 0 0 0 0 0 0 0 0 0 0 0 0 0 0 0 0 0 0 0 0 0 0 -0
-0 -0 -0 -0 0 0 0 0 0 0 0 0 0 0 0 0 0 0 0 0 0 0 0 0 0 0 0 0 0 0 0 0 0 0 0 0 0 0 0 0 0 0 0
-0 -0 -0 0 0 0 0 0 0 0 0 0 0 0 0 0 0 0 0 0 0 0 0 0 0 0 0 0 0 0 0 0 0 0 0 0 0 0 0 0 0 0 0
0 0 0 0 0 0 0 0 0 0 0 0 0 0 0 0 0 0 0 0 0 0 0 0 0 0 0 0 0 0 0 0 0 0 0 0 0 0 0 0 0 0 0
0 0 0 0 0 0 0 0 0 0 0 0 0 0 0 0 0 0 0 0 0 0 0 0 0 0 0 0 0 0 0 0 0 0 0 0 0 0 0 0 0 0 0
0 0 0 0 0 0 0 0 0 0 0 0 0 0 0 0 0 0 0 0 0 0 0 0 0 0 0 0 0 0 0 0 0 0 0 0 0 0 0 0 0 0 0
0 0 0 0 0 0 0 0 0 0 0 0 0 0 0 0 0 0 0 0 0 0 0 0 0 0 0 0 0 0 0 0 0 0 0 0 0 0 0 0 0 0 0
0 0 0 0 0 0 0 0 0 0 0 0 0 0 0 0 0 0 0 0 0 0 0 0 0 0 0 0 0 0 0 0 0 0 0 0 0 0 0 0 0 0 0
0 0 0 0 0 0 0 0 0 0 0 0 0 0 0 0 0 0 0 0 0 0 0 0 0 0 0 0 0 0 0 0 0 0 0 0 0 0 0 0 0 0 0
0 0 0 0 0 0 0 0 0 0 0 0 0 0 0 0 0 0 0 0 0 0 0 0 0 0 0 0 0 0 0 0 0 0 0 0 0 0 0 0 0 0 0
Wind_Speed_500mb
30 31 30 24 19 20 24 32 31 24 24 25 24 20 21 17 13 11 17 23 24 23 22 22 23 24 24 24 25 27 26 26 25 24 24 22 21 22 21 19 20 19 19
34 35 30 24 21 22 26 31 31 25 24 27 24 22 19 12 7 10 16 20 21 19 21 21 21 22 21 22 23 24 24 23 20 21 22 23 23 24 23 23 20 19 20
35 38 34 28 27 24 26 30 30 26 23 22 22 20 15 6 5 10 14 16 15 18 18 19 19 19 18 19 19 19 19 20 19 18 18 18 19 22 22 21 21 20 20
35 40 36 34 30 26 27 26 26 25 20 17 14 11 7 3 6 10 13 15 16 16 18 15 14 15 16 16 16 15 17 18 18 17 17 17 19 19 20 20 20 20 19
36 39 37 34 30 26 26 25 23 21 17 14 12 11 9 7 8 9 9 9 11 14 15 13 13 13 13 13 15 17 19 21 22 20 18 19 20 21 19 20 21 21 21
36 40 37 33 29 23 19 20 18 16 14 11 10 10 8 5 4 4 6 8 8 10 11 13 12 13 15 15 17 19 21 22 23 23 22 22 21 22 23 22 22 23 23
35 38 36 31 26 21 19 18 16 15 10 8 8 6 4 1 2 3 6 9 12 12 13 15 17 18 18 19 20 20 21 23 23 25 25 25 23 23 25 25 25 25 25
31 35 34 32 28 22 19 17 15 12 7 5 6 6 6 8 7 8 10 11 12 13 14 15 16 18 19 19 19 20 22 24 26 27 27 28 26 25 26 27 28 28 30
29 31 33 31 28 24 19 16 13 10 9 8 8 8 9 9 8 8 8 7 8 9 11 13 14 16 17 19 20 22 25 27 30 30 30 31 29 29 31 31 32 33 34
27 28 29 28 25 21 17 14 10 7 9 9 8 8 8 8 7 7 7 7 8 10 13 15 17 19 21 23 25 27 29 30 32 32 33 33 33 34 36 37 36 37 38
29 27 26 25 23 21 18 14 11 9 7 7 6 5 4 4 4 4 6 9 11 13 15 17 19 21 23 24 27 29 31 33 35 35 36 36 38 38 39 39 40 40 40
32 28 25 24 23 21 19 16 13 10 8 6 4 2 2 3 6 8 10 12 14 15 16 18 19 21 24 26 28 32 35 38 40 41 41 40 41 40 38 37 39 41 44
29 28 26 24 23 21 18 15 12 9 6 3 1 3 6 7 10 12 13 15 17 18 18 20 21 23 27 30 32 35 38 41 42 43 45 45 45 44 43 41 40 40 42
31 26 24 23 22 21 20 17 14 9 6 3 5 7 9 11 13 16 18 21 23 25 26 29 32 32 34 36 39 42 43 44 44 47 49 48 47 44 41 44 43 44 45
30 28 26 24 21 20 18 16 13 9 6 7 8 10 13 16 18 21 23 26 29 31 33 36 39 41 43 44 45 48 50 50 53 54 57 55 55 51 49 50 49 47 49
28 29 27 25 21 19 17 14 10 8 8 9 11 13 18 21 23 26 29 31 33 36 39 43 45 48 52 52 53 54 55 56 57 60 62 61 56 56 56 55 56 54 54
27 25 27 22 20 19 15 13 11 11 14 15 17 19 23 26 29 31 33 35 36 37 41 43 46 50 55 55 56 58 59 60 62 65 67 67 63 58 56 56 60 58 57
27 25 22 22 19 16 13 12 13 15 19 21 24 26 29 31 33 36 39 40 40 43 46 49 51 55 55 57 60 60 66 65 67 68 66 63 59 55 50 45 45 50 54
22 21 19 17 15 13 14 15 16 19 22 24 30 32 35 38 40 42 43 45 46 48 49 50 53 53 56 57 65 71 65 65 65 63 51 43 39 37 36 36 34 36 40
24 24 22 21 21 20 20 20 21 23 26 29 33 36 38 41 42 39 40 42 45 45 46 48 50 54 61 66 66 63 62 60 52 43 40 31 32 31 30 32 39 42 43
29 28 27 25 25 25 25 26 28 31 33 35 39 41 41 40 42 40 33 36 38 42 45 48 54 54 53 55 57 59 57 48 45 26 21 40 38 40 39 37 40 46 44
31 29 30 30 30 28 30 33 34 32 31 30 31 33 34 34 33 30 31 32 36 37 38 41 43 45 46 47 44 47 30 51 32 43 45 42 43 43 44 44 49 45 48
32 29 29 30 27 23 24 27 27 26 26 25 25 26 27 25 24 25 28 30 32 34 35 37 38 38 39 43 40 25 19 16 56 44 58 52 50 56 49 50 56 59 60
28 25 20 19 21 23 22 20 19 16 13 13 15 16 17 19 21 23 25 26 28 30 32 34 36 38 40 43 45 37 36 41 39 42 44 62 63 60 68 70 69 67 65
20 18 16 13 10 5 1 1 4 6 7 7 10 12 14 18 20 22 24 27 29 31 33 37 39 40 41 42 43 49 52 53 46 37 60 47 80 77 76 73 71 71 68
23 18 15 14 13 14 11 12 10 9 9 8 8 9 12 16 20 23 26 29 32 35 36 39 40 41 43 44 45 44 46 50 55 55 67 84 87 91 86 82 75 69 65
Wind_Direction_500mb
161 160 160 171 170 163 159 149 142 131 110 120 132 131 124 114 95 55 36 32 40 49 54 56 59 60 61 62 61 59 56 55 55 52 45 38 36 33 28 25 22 22 35
153 158 159 159 151 156 160 151 145 135 121 113 124 128 127 117 83 48 25 24 40 53 58 59 61 61 60 58 57 55 52 50 49 48 40 35 32 31 26 24 21 19 20
153 154 148 146 134 122 141 151 150 141 133 127 127 129 122 101 34 8 9 20 40 54 57 62 60 60 58 52 47 44 45 42 41 37 31 27 26 26 21 16 14 10 10
154 152 146 145 138 132 129 140 150 150 145 147 153 164 181 221 308 331 355 7 35 47 54 62 64 58 50 44 34 26 24 27 28 25 16 10 10 15 10 6 3 1 355
157 155 151 147 149 142 133 131 139 152 161 171 182 202 225 257 288 317 349 359 19 41 52 64 52 50 39 30 17 8 5 0 1 360 359 359 357 353 354 352 348 345 344
159 159 156 154 153 152 155 159 162 163 169 184 201 211 224 251 292 348 6 18 24 30 44 46 38 29 22 12 3 358 352 349 346 343 344 345 341 337 337 337 335 331 329
159 162 162 162 163 161 160 160 160 158 160 171 179 179 182 157 70 57 45 33 32 32 28 27 27 22 16 9 4 356 348 342 338 336 335 331 327 327 324 321 320 322 320
161 163 167 169 173 173 167 162 157 155 133 109 113 115 90 67 65 62 51 44 38 29 22 18 16 14 12 5 355 347 339 332 330 328 325 324 317 316 318 315 311 313 314
164 168 170 174 177 176 171 167 162 163 123 92 92 89 86 81 74 66 59 48 34 24 11 4 359 355 351 345 340 334 328 326 324 320 320 322 313 310 309 309 307 305 307
169 174 177 178 179 178 175 177 180 158 116 96 93 105 101 85 69 50 34 18 4 355 347 342 341 339 339 338 335 332 330 328 322 319 317 317 313 308 308 308 304 301 301
171 176 177 178 178 178 179 178 171 162 150 134 125 113 94 66 43 18 8 353 343 336 336 335 336 333 332 334 333 328 325 324 323 320 317 316 311 308 304 304 304 302 302
172 169 170 172 172 174 174 178 174 175 166 146 123 87 25 350 340 345 342 336 331 331 333 327 325 327 328 326 326 323 321 321 320 319 316 312 309 306 305 303 299 301 300
168 171 166 168 169 165 163 167 169 163 162 168 204 281 292 304 305 309 310 311 312 313 312 311 312 314 314 315 316 316 318 319 320 319 318 317 310 307 302 303 304 306 300
176 174 174 174 171 170 172 169 172 173 184 202 255 274 287 297 306 307 309 309 313 311 311 310 308 308 307 309 311 313 316 317 315 316 317 318 318 319 315 312 302 300 301
179 180 182 179 177 183 184 184 185 187 210 238 260 281 292 298 302 302 308 308 307 307 306 302 302 303 304 304 305 306 307 308 309 315 315 314 308 306 305 299 300 298 291
182 186 188 185 183 186 188 203 218 235 248 267 285 297 300 305 308 309 309 309 310 311 308 306 304 304 303 304 304 302 304 306 309 309 309 306 305 296 296 295 295 295 293
182 184 192 190 197 204 205 223 240 263 278 288 295 297 299 302 304 306 305 308 314 313 307 303 305 304 304 306 307 307 306 308 310 312 311 307 305 303 298 292 290 290 293
191 195 196 201 211 225 237 254 270 280 287 296 300 299 300 300 301 301 303 307 309 309 308 304 303 302 306 311 310 309 308 310 311 312 312 309 300 298 299 299 294 291 294
201 205 211 217 227 241 254 261 275 284 291 296 297 297 299 299 298 301 304 302 300 299 302 300 298 298 300 305 306 306 309 311 313 313 314 318 317 308 304 307 305 304 306
210 216 224 232 241 245 251 264 272 279 285 289 291 294 294 295 297 296 296 300 301 301 302 304 304 305 305 303 303 308 312 315 317 317 314 324 328 323 317 313 313 313 309
220 224 229 234 242 247 253 262 268 272 277 281 286 288 291 293 296 299 293 298 303 304 300 297 299 302 307 310 316 314 316 319 321 322 330 317 315 308 305 304 304 307 301
222 232 239 242 248 256 264 267 269 274 280 281 283 288 292 297 302 304 300 295 297 302 306 310 313 315 317 319 330 334 331 328 322 314 319 321 321 314 311 302 302 302 302
219 225 233 238 244 248 256 263 271 279 281 282 284 291 299 306 311 313 312 313 316 318 320 322 322 323 322 321 326 333 330 309 319 319 314 317 310 311 308 306 303 302 306
194 194 198 217 235 248 263 277 274 273 278 294 308 315 319 319 323 328 327 326 324 324 322 323 326 327 326 324 325 320 311 299 307 311 307 310 307 304 307 309 310 311 311
174 185 198 216 237 253 257 26 24 28 30 7 347 344 338 338 339 335 333 333 331 330 330 331 331 330 327 325 322 320 318 317 319 298 305 305 307 311 310 307 309 309 310
146 150 146 120 113 104 92 76 57 47 42 24 354 336 338 337 336 335 336 336 337 336 336 335 334 330 328 326 324 319 315 314 311 308 304 309 311 312 310 309 308 308 307
Wind_Speed_850mb
30 31 30 24 19 20 24 32 31 24 24 25 24 20 21 17 13 11 17 23 24 23 22 22 23 24 24 24 25 27 26 26 25 24 24 22 21 22 21 19 20 19 19
34 35 30 24 21 22 26 31 31 25 24 27 24 22 19 12 7 10 16 20 21 19 21 21 21 22 21 22 23 24 24 23 20 21 22 23 23 24 23 23 20 19 20
35 38 34 28 27 24 26 30 30 26 23 22 22 20 15 6 5 10 14 16 15 18 18 19 19 19 18 19 19 19 19 20 19 18 18 18 19 22 22 21 21 20 20
35 40 36 34 30 26 27 26 26 25 20 17 14 11 7 3 6 10 13 15 16 16 18 15 14 15 16 16 16 15 17 18 18 17 17 17 19 19 20 20 20 20 19
36 39 37 34 30 26 26 25 23 21 17 14 12 11 9 7 8 9 9 9 11 14 15 13 13 13 13 13 15 17 19 21 22 20 18 19 20 21 19 20 21 21 21
36 40 37 33 29 23 19 20 18 16 14 11 10 10 8 5 4 4 6 8 8 10 11 13 12 13 15 15 17 19 21 22 23 23 22 22 21 22 23 22 22 23 23
35 38 36 31 26 21 19 18 16 15 10 8 8 6 4 1 2 3 6 9 12 12 13 15 17 18 18 19 20 20 21 23 23 25 25 25 23 23 25 25 25 25 25
31 35 34 32 28 22 19 17 15 12 7 5 6 6 6 8 7 8 10 11 12 13 14 15 16 18 19 19 19 20 22 24 26 27 27 28 26 25 26 27 28 28 30
29 31 33 31 28 24 19 16 13 10 9 8 8 8 9 9 8 8 8 7 8 9 11 13 14 16 17 19 20 22 25 27 30 30 30 31 29 29 31 31 32 33 34
27 28 29 28 25 21 17 14 10 7 9 9 8 8 8 8 7 7 7 7 8 10 13 15 17 19 21 23 25 27 29 30 32 32 33 33 33 34 36 37 36 37 38
29 27 26 25 23 21 18 14 11 9 7 7 6 5 4 4 4 4 6 9 11 13 15 17 19 21 23 24 27 29 31 33 35 35 36 36 38 38 39 39 40 40 40
32 28 25 24 23 21 19 16 13 10 8 6 4 2 2 3 6 8 10 12 14 15 16 18 19 21 24 26 28 32 35 38 40 41 41 40 41 40 38 37 39 41 44
29 28 26 24 23 21 18 15 12 9 6 3 1 3 6 7 10 12 13 15 17 18 18 20 21 23 27 30 32 35 38 41 42 43 45 45 45 44 43 41 40 40 42
31 26 24 23 22 21 20 17 14 9 6 3 5 7 9 11 13 16 18 21 23 25 26 29 32 32 34 36 39 42 43 44 44 47 49 48 47 44 41 44 43 44 45
30 28 26 24 21 20 18 16 13 9 6 7 8 10 13 16 18 21 23 26 29 31 33 36 39 41 43 44 45 48 50 50 53 54 57 55 55 51 49 50 49 47 49
28 29 27 25 21 19 17 14 10 8 8 9 11 13 18 21 23 26 29 31 33 36 39 43 45 48 52 52 53 54 55 56 57 60 62 61 56 56 56 55 56 54 54
27 25 27 22 20 19 15 13 11 11 14 15 17 19 23 26 29 31 33 35 36 37 41 43 46 50 55 55 56 58 59 60 62 65 67 67 63 58 56 56 60 58 57
27 25 22 22 19 16 13 12 13 15 19 21 24 26 29 31 33 36 39 40 40 43 46 49 51 55 55 57 60 60 66 65 67 68 66 63 59 55 50 45 45 50 54
22 21 19 17 15 13 14 15 16 19 22 24 30 32 35 38 40 42 43 45 46 48 49 50 53 53 56 57 65 71 65 65 65 63 51 43 39 37 36 36 34 36 40
24 24 22 21 21 20 20 20 21 23 26 29 33 36 38 41 42 39 40 42 45 45 46 48 50 54 61 66 66 63 62 60 52 43 40 31 32 31 30 32 39 42 43
29 28 27 25 25 25 25 26 28 31 33 35 39 41 41 40 42 40 33 36 38 42 45 48 54 54 53 55 57 59 57 48 45 26 21 40 38 40 39 37 40 46 44
31 29 30 30 30 28 30 33 34 32 31 30 31 33 34 34 33 30 31 32 36 37 38 41 43 45 46 47 44 47 30 51 32 43 45 42 43 43 44 44 49 45 48
32 29 29 30 27 23 24 27 27 26 26 25 25 26 27 25 24 25 28 30 32 34 35 37 38 38 39 43 40 25 19 16 56 44 58 52 50 56 49 50 56 59 60
28 25 20 19 21 23 22 20 19 16 13 13 15 16 17 19 21 23 25 26 28 30 32 34 36 38 40 43 45 37 36 41 39 42 44 62 63 60 68 70 69 67 65
20 18 16 13 10 5 1 1 4 6 7 7 10 12 14 18 20 22 24 27 29 31 33 37 39 40 41 42 43 49 52 53 46 37 60 47 80 77 76 73 71 71 68
23 18 15 14 13 14 11 12 10 9 9 8 8 9 12 16 20 23 26 29 32 35 36 39 40 41 43 44 45 44 46 50 55 55 67 84 87 91 86 82 75 69 65
Wind_Direction_850mb
161 160 160 171 170 163 159 149 142 131 110 120 132 131 124 114 95 55 36 32 40 49 54 56 59 60 61 62 61 59 56 55 55 52 45 38 36 33 28 25 22 22 35
153 158 159 159 151 156 160 151 145 135 121 113 124 128 127 117 83 48 25 24 40 53 58 59 61 61 60 58 57 55 52 50 49 48 40 35 32 31 26 24 21 19 20
153 154 148 146 134 122 141 151 150 141 133 127 127 129 122 101 34 8 9 20 40 54 57 62 60 60 58 52 47 44 45 42 41 37 31 27 26 26 21 16 14 10 10
154 152 146 145 138 132 129 140 150 150 145 147 153 164 181 221 308 331 355 7 35 47 54 62 64 58 50 44 34 26 24 27 28 25 16 10 10 15 10 6 3 1 355
157 155 151 147 149 142 133 131 139 152 161 171 182 202 225 257 288 317 349 359 19 41 52 64 52 50 39 30 17 8 5 0 1 360 359 359 357 353 354 352 348 345 344
159 159 156 154 153 152 155 159 162 163 169 184 201 211 224 251 292 348 6 18 24 30 44 46 38 29 22 12 3 358 352 349 346 343 344 345 341 337 337 337 335 331 329
159 162 162 162 163 161 160 160 160 158 160 171 179 179 182 157 70 57 45 33 32 32 28 27 27 22 16 9 4 356 348 342 338 336 335 331 327 327 324 321 320 322 320
161 163 167 169 173 173 167 162 157 155 133 109 113 115 90 67 65 62 51 44 38 29 22 18 16 14 12 5 355 347 339 332 330 328 325 324 317 316 318 315 311 313 314
164 168 170 174 177 176 171 167 162 163 123 92 92 89 86 81 74 66 59 48 34 24 11 4 359 355 351 345 340 334 328 326 324 320 320 322 313 310 309 309 307 305 307
169 174 177 178 179 178 175 177 180 158 116 96 93 105 101 85 69 50 34 18 4 355 347 342 341 339 339 338 335 332 330 328 322 319 317 317 313 308 308 308 304 301 301
171 176 177 178 178 178 179 178 171 162 150 134 125 113 94 66 43 18 8 353 343 336 336 335 336 333 332 334 333 328 325 324 323 320 317 316 311 308 304 304 304 302 302
172 169 170 172 172 174 174 178 174 175 166 146 123 87 25 350 340 345 342 336 331 331 333 327 325 327 328 326 326 323 321 321 320 319 316 312 309 306 305 303 299 301 300
168 171 166 168 169 165 163 167 169 163 162 168 204 281 292 304 305 309 310 311 312 313 312 311 312 314 314 315 316 316 318 319 320 319 318 317 310 307 302 303 304 306 300
176 174 174 174 171 170 172 169 172 173 184 202 255 274 287 297 306 307 309 309 313 311 311 310 308 308 307 309 311 313 316 317 315 316 317 318 318 319 315 312 302 300 301
179 180 182 179 177 183 184 184 185 187 210 238 260 281 292 298 302 302 308 308 307 307 306 302 302 303 304 304 305 306 307 308 309 315 315 314 308 306 305 299 300 298 291
182 186 188 185 183 186 188 203 218 235 248 267 285 297 300 305 308 309 309 309 310 311 308 306 304 304 303 304 304 302 304 306 309 309 309 306 305 296 296 295 295 295 293
182 184 192 190 197 204 205 223 240 263 278 288 295 297 299 302 304 306 305 308 314 313 307 303 305 304 304 306 307 307 306 308 310 312 311 307 305 303 298 292 290 290 293
191 195 196 201 211 225 237 254 270 280 287 296 300 299 300 300 301 301 303 307 309 309 308 304 303 302 306 311 310 309 308 310 311 312 312 309 300 298 299 299 294 291 294
201 205 211 217 227 241 254 261 275 284 291 296 297 297 299 299 298 301 304 302 300 299 302 300 298 298 300 305 306 306 309 311 313 313 314 318 317 308 304 307 305 304 306
210 216 224 232 241 245 251 264 272 279 285 289 291 294 294 295 297 296 296 300 301 301 302 304 304 305 305 303 303 308 312 315 317 317 314 324 328 323 317 313 313 313 309
220 224 229 234 242 247 253 262 268 272 277 281 286 288 291 293 296 299 293 298 303 304 300 297 299 302 307 310 316 314 316 319 321 322 330 317 315 308 305 304 304 307 301
222 232 239 242 248 256 264 267 269 274 280 281 283 288 292 297 302 304 300 295 297 302 306 310 313 315 317 319 330 334 331 328 322 314 319 321 321 314 311 302 302 302 302
219 225 233 238 244 248 256 263 271 279 281 282 284 291 299 306 311 313 312 313 316 318 320 322 322 323 322 321 326 333 330 309 319 319 314 317 310 311 308 306 303 302 306
194 194 198 217 235 248 263 277 274 273 278 294 308 315 319 319 323 328 327 326 324 324 322 323 326 327 326 324 325 320 311 299 307 311 307 310 307 304 307 309 310 311 311
174 185 198 216 237 253 257 26 24 28 30 7 347 344 338 338 339 335 333 333 331 330 330 331 331 330 327 325 322 320 318 317 319 298 305 305 307 311 310 307 309 309 310
146 150 146 120 113 104 92 76 57 47 42 24 354 336 338 337 336 335 336 336 337 336 336 335 334 330 328 326 324 319 315 314 311 308 304 309 311 312 310 309 308 308 307